Vertical_Velocity
1 -2 -4 -1 -2 -2 -3 -3 -3 -4 -4 -3 -3 -4 -2 -3 -1 7 1 -2 -2 1 1 1 0 -1 -1 -1 -1 -1 -3 -3 -9 0 -4 2 -4 -6 -2 -2 -1 0 8
-1 -2 -1 1 -1 -3 -2 -3 -5 -3 -2 -3 -3 -1 -1 -3 1 1 -0 3 0 0 1 0 0 1 -0 0 -1 -2 -4 -0 -4 -20 7 1 -4 -2 -2 -5 -0 -2 -2
1 0 1 -0 -2 -2 -3 -5 -3 -3 -3 -3 -4 -3 -1 0 -1 1 0 -1 -1 -0 0 0 -0 0 2 1 1 1 1 -1 -3 -8 -1 -2 -2 -3 -3 -0 -2 -5 10
1 -0 -1 -1 -3 -3 -4 -3 -4 -3 -1 -4 -3 -2 1 -3 -2 -0 -0 1 -0 -1 -1 -1 -0 -1 0 -1 -0 -1 -1 -0 -0 -5 -1 -3 -2 0 -3 -3 -2 1 5
-1 -1 -2 -2 -4 -4 -3 -2 -3 -4 -4 -3 -1 -3 -3 -3 -0 1 5 6 -1 -0 -1 -0 0 -0 -0 1 0 1 0 0 1 -3 -1 -1 -1 -1 -1 -1 -4 -3 9
-1 -2 -1 -1 -1 -2 -2 -4 -3 -3 -2 -2 -4 1 -1 -4 1 1 0 -0 0 -1 -1 0 -0 -2 -2 -2 1 1 1 -3 1 -2 -1 0 0 -0 8 5 3 -1 -0
-2 -3 -2 -3 -3 -5 -4 -2 -1 -2 -4 -4 -2 3 -0 -3 -0 0 -1 -0 0 -0 -0 -1 -1 -1 -3 -1 -1 -1 -2 -2 -0 1 -1 1 -1 3 2 -2 2 2 -2
-2 -1 -2 -2 -3 -1 -1 -3 -3 -5 -2 -3 -1 -0 -1 -1 -1 1 -0 1 1 -0 -1 -1 0 -0 -3 -0 -1 -0 -0 -1 0 1 2 2 1 1 3 1 -3 -4 -3
-1 -1 -2 -4 -2 -1 1 -3 -2 -1 -1 -2 -0 -1 0 -6 1 -0 -2 -1 -1 -0 0 -1 -0 -2 -2 -1 0 -1 1 -0 -0 -1 -0 1 1 0 -0 -3 -2 -1 2
1 -0 -1 -3 -3 -2 -3 -3 -3 -2 -2 -0 -1 -1 2 -2 2 -1 0 -1 -0 0 0 -1 -4 1 -1 -1 -1 -1 0 -0 -1 2 2 -0 -1 -1 -0 -2 -0 -2 -1
0 -2 0 -0 -3 -3 -4 -2 0 1 1 4 1 -0 -1 2 -4 -1 -0 -2 -1 -1 -1 -2 -2 -2 -1 -0 -1 -0 -1 -2 0 -1 -1 -0 -0 1 0 0 -1 1 -1
-2 -3 -2 1 -3 -2 -5 0 1 1 0 -1 2 -0 -1 2 3 -1 -2 -1 -2 -2 -1 -2 -2 -2 -2 0 0 0 1 -0 -1 -2 -1 -1 -1 0 1 0 -0 -1 2
-1 0 -2 -0 -4 -1 -2 -3 -2 1 1 -1 -1 -0 1 -6 -2 2 -2 -2 -2 -1 -2 -3 -2 -1 -0 -2 -3 -1 -0 -0 -1 -2 -1 -1 -1 1 1 -1 0 0 0
2 -1 -0 3 1 -1 -4 -4 0 1 -1 -0 -1 -0 -1 -1 -1 0 -1 -3 -2 -2 -3 -3 -2 -0 0 -1 -2 -3 -2 -1 0 0 -0 0 -1 0 1 1 8 3 -0
-2 -3 -0 3 -2 -4 -1 0 -3 0 -1 -0 -1 -0 0 0 -0 1 -0 -1 -2 -3 -2 -2 -1 -2 -1 -1 -1 -1 -2 -1 -0 -0 0 -0 -0 0 1 1 1 5 2
-5 -3 -1 1 -5 -4 -3 -3 1 -3 -1 -1 -1 1 1 -0 -0 0 0 -1 -1 -2 -2 -2 -2 -2 0 1 -0 0 -1 -1 -1 -1 -0 0 0 1 1 1 0 -0 4
-2 -1 5 -2 -4 -3 -2 -2 -2 -6 -1 -1 -2 -1 -1 -1 -0 -0 -0 -2 -1 -2 -2 -2 -2 -2 -1 0 -0 -0 -0 -0 -0 -0 -1 -0 0 1 1 1 1 1 0
-0 5 -1 -2 -0 -1 -5 -3 -4 0 -3 -2 -1 -1 -1 1 -1 -1 -0 -1 -2 -1 1 -2 -2 -2 -2 -1 -0 1 -0 -0 -1 -1 -1 -1 -0 0 1 1 1 1 1
1 0 -2 1 0 0 -0 -1 -1 -2 -1 -0 -2 -4 -1 0 -1 -1 -1 0 -1 -2 -2 -2 -2 -2 -1 -1 -1 0 1 -0 -0 -0 -1 -1 -0 -0 0 0 0 1 1
-1 -4 -0 -4 2 -1 -1 1 -0 -2 -1 -1 -1 -1 -2 -2 -1 -1 -2 -0 -1 -0 -1 -2 -2 -1 -1 -0 -1 0 -0 0 -1 0 0 -1 -1 -0 -1 0 1 0 -0
-1 1 -2 2 -0 -2 0 -1 1 1 1 -1 -1 0 0 -2 1 -2 -2 -1 0 0 1 -1 -1 -2 -1 -1 -0 -1 0 0 -0 -1 -0 0 -1 -1 -0 0 -0 -0 -0
1 2 1 -0 -1 1 -1 1 1 -0 3 -0 3 -1 -0 -1 0 1 -1 -0 1 0 1 0 1 -1 -1 -2 -2 -1 -1 -0 -1 -0 -0 -0 0 -0 -0 -0 -0 0 1
-0 -2 -1 -2 -2 -3 -1 0 0 2 2 2 2 1 0 0 2 -0 -0 2 -1 -1 2 0 1 1 -0 -0 -1 -2 -1 -1 -1 -1 0 -0 -1 0 -0 -0 -0 -1 -1
1 1 -0 0 0 0 -1 -0 -0 1 1 1 1 2 2 1 -0 0 0 1 1 4 1 -0 0 2 -0 -1 -0 -1 -2 -1 -1 -1 -1 -0 -1 -1 -0 -1 -1 -0 -0
5 0 -0 1 1 1 1 1 0 1 0 1 1 1 1 -0 -1 -1 -0 -0 -0 3 8 5 3 3 -1 -1 -0 -1 -1 -2 -1 -1 -1 -1 -1 -1 -1 -1 -0 -1 -0
-0 12 2 -2 -2 1 2 3 1 0 1 1 1 -0 -1 -0 0 -1 0 0 1 -0 0 0 3 5 3 -2 -0 -0 -1 -1 -1 -1 -1 -1 -1 -1 -1 -0 -1 -1 0
Height
3117 3112 3109 3104 3100 3095 3089 3083 3077 3071 3064 3058 3052 3047 3040 3035 3031 3027 3024 3020 3017 3015 3012 3007 3000 2996 2992 2988 2983 2979 2975 2970 2961 2956 2951 2946 2941 2937 2936 2934 2934 2935 2939
3109 3105 3101 3097 3092 3086 3081 3075 3068 3062 3055 3049 3043 3037 3032 3027 3024 3020 3017 3015 3012 3008 3004 2999 2994 2989 2984 2980 2975 2970 2965 2959 2952 2946 2941 2936 2931 2929 2926 2924 2924 2926 2929
3102 3098 3093 3089 3084 3078 3072 3066 3059 3053 3046 3040 3035 3029 3024 3020 3017 3014 3011 3008 3005 3001 2996 2991 2986 2981 2976 2972 2967 2961 2955 2948 2942 2937 2931 2926 2922 2920 2917 2915 2915 2917 2922
3095 3091 3086 3081 3076 3070 3064 3057 3050 3044 3039 3033 3026 3022 3018 3014 3011 3008 3005 3002 2998 2994 2988 2983 2978 2973 2968 2963 2958 2952 2945 2939 2934 2928 2922 2918 2914 2912 2910 2909 2909 2911 2915
3088 3083 3078 3073 3068 3061 3055 3049 3043 3037 3031 3025 3021 3016 3011 3007 3005 3002 2999 2995 2991 2986 2981 2976 2970 2965 2960 2955 2949 2943 2936 2930 2925 2920 2915 2910 2908 2905 2905 2904 2903 2904 2905
3080 3075 3071 3065 3059 3054 3048 3042 3035 3029 3024 3019 3014 3009 3004 3001 2998 2996 2992 2988 2983 2978 2973 2968 2963 2957 2951 2946 2941 2934 2928 2922 2917 2912 2908 2904 2901 2900 2899 2898 2898 2898 2899
3072 3067 3062 3056 3051 3046 3040 3034 3028 3023 3017 3012 3008 3004 2999 2995 2992 2989 2985 2981 2976 2971 2966 2961 2956 2950 2944 2938 2932 2927 2921 2916 2910 2906 2902 2897 2894 2894 2893 2892 2892 2892 2894
3064 3059 3054 3048 3043 3038 3032 3026 3021 3015 3010 3005 3001 2997 2993 2989 2986 2983 2979 2974 2969 2964 2959 2954 2949 2944 2937 2931 2925 2920 2915 2910 2905 2900 2895 2892 2888 2888 2887 2885 2884 2885 2886
3055 3050 3046 3041 3035 3030 3024 3019 3013 3008 3003 2999 2995 2992 2988 2983 2980 2976 2972 2967 2963 2957 2953 2948 2943 2938 2932 2925 2920 2915 2910 2905 2900 2895 2890 2886 2882 2879 2878 2877 2878 2879 2881
3047 3042 3037 3032 3027 3022 3016 3011 3006 3001 2997 2992 2989 2986 2982 2977 2974 2970 2966 2961 2956 2952 2948 2943 2938 2933 2926 2920 2915 2910 2905 2900 2895 2890 2884 2880 2877 2874 2873 2872 2872 2873 2876
3038 3034 3029 3024 3018 3012 3007 3003 2998 2993 2989 2986 2982 2980 2975 2972 2967 2964 2959 2955 2951 2947 2943 2938 2933 2928 2923 2917 2911 2906 2901 2896 2891 2884 2880 2877 2874 2872 2870 2869 2868 2868 2869
3031 3026 3021 3015 3009 3003 2999 2995 2991 2987 2983 2980 2977 2973 2969 2966 2962 2957 2954 2950 2946 2942 2938 2933 2929 2924 2919 2914 2908 2903 2898 2893 2887 2881 2877 2875 2872 2870 2868 2866 2865 2864 2864
3023 3017 3011 3006 3000 2995 2991 2987 2984 2980 2976 2973 2971 2967 2964 2959 2955 2952 2948 2945 2942 2937 2933 2928 2925 2921 2916 2911 2905 2901 2895 2890 2885 2879 2876 2874 2871 2869 2867 2865 2863 2862 2862
3014 3009 3003 2997 2993 2988 2983 2980 2976 2973 2970 2967 2965 2961 2958 2954 2950 2947 2944 2941 2937 2932 2928 2925 2921 2917 2913 2909 2904 2898 2893 2888 2883 2878 2875 2873 2871 2869 2867 2866 2865 2864 2863
3007 3001 2996 2990 2986 2981 2977 2973 2970 2967 2965 2962 2959 2956 2953 2949 2946 2943 2941 2937 2933 2929 2925 2921 2917 2913 2910 2906 2901 2897 2892 2887 2882 2878 2874 2872 2870 2868 2867 2866 2865 2865 2865
2999 2994 2989 2984 2979 2975 2971 2968 2965 2961 2959 2957 2955 2952 2948 2944 2941 2939 2937 2934 2930 2925 2922 2918 2915 2911 2908 2904 2900 2895 2891 2886 2882 2878 2874 2871 2869 2867 2866 2865 2865 2864 2865
2991 2986 2983 2978 2973 2969 2966 2963 2959 2955 2953 2951 2949 2946 2942 2940 2937 2935 2932 2929 2926 2922 2919 2916 2913 2909 2905 2901 2898 2894 2889 2885 2881 2877 2874 2870 2867 2866 2865 2864 2864 2864 2864
2984 2980 2976 2972 2968 2964 2961 2957 2953 2950 2947 2945 2943 2940 2937 2934 2932 2930 2928 2925 2922 2919 2916 2913 2910 2907 2903 2899 2896 2892 2887 2883 2880 2876 2873 2870 2867 2865 2863 2862 2861 2861 2861
2977 2974 2969 2965 2961 2958 2955 2951 2947 2944 2941 2939 2937 2934 2932 2929 2927 2925 2923 2921 2918 2915 2913 2910 2907 2904 2901 2897 2893 2889 2885 2881 2878 2875 2872 2869 2866 2864 2862 2860 2859 2858 2858
2970 2966 2962 2958 2955 2951 2947 2944 2941 2937 2935 2933 2931 2929 2926 2924 2922 2920 2918 2916 2914 2911 2909 2907 2904 2901 2898 2895 2891 2887 2883 2879 2875 2872 2870 2868 2865 2863 2861 2859 2857 2856 2855
2962 2958 2954 2951 2947 2943 2940 2936 2933 2930 2928 2925 2924 2923 2921 2919 2917 2914 2912 2910 2908 2906 2904 2902 2900 2898 2895 2892 2889 2885 2881 2877 2873 2870 2868 2866 2864 2862 2860 2858 2857 2855 2854
2953 2950 2946 2942 2939 2935 2931 2927 2924 2922 2919 2918 2916 2915 2913 2912 2910 2908 2906 2904 2902 2900 2899 2897 2895 2893 2891 2889 2886 2883 2879 2875 2871 2868 2866 2864 2861 2860 2858 2857 2855 2854 2853
2944 2940 2936 2932 2928 2925 2921 2918 2915 2912 2910 2909 2908 2907 2905 2904 2902 2900 2899 2897 2895 2893 2892 2890 2889 2887 2886 2884 2882 2879 2876 2873 2870 2866 2863 2861 2859 2857 2856 2854 2853 2852 2851
2933 2929 2924 2920 2917 2913 2910 2908 2905 2902 2900 2899 2898 2898 2896 2895 2893 2892 2890 2889 2887 2886 2884 2882 2881 2880 2879 2878 2877 2875 2873 2870 2867 2864 2861 2859 2857 2855 2853 2852 2851 2850 2849
2921 2917 2912 2908 2905 2902 2899 2897 2895 2893 2891 2890 2889 2888 2887 2885 2884 2882 2881 2879 2878 2876 2875 2874 2872 2872 2871 2871 2870 2869 2868 2866 2863 2861 2859 2856 2854 2852 2851 2849 2848 2847 2846
2909 2906 2901 2898 2895 2892 2889 2887 2885 2884 2882 2881 2880 2878 2877 2875 2874 2872 2870 2868 2867 2866 2865 2864 2863 2862 2862 2862 2863 2862 2861 2860 2859 2857 2855 2853 2851 2849 2848 2846 2845 2844 2843